Weather History for Findlay, OH

Change the Weather History Date:

Saturday, January 28, 2012

  Actual Average Record
Temperature  
Mean Temperature 32 °F -  
Max Temperature 35 °F 30 °F 61 °F (2002)
Min Temperature 30 °F 17 °F -14 °F (2014)
Degree Days  
Heating Degree Days 32    
Moisture  
Dew Point 28 °F    
Average Humidity 82    
Maximum Humidity 96    
Minimum Humidity 52    
Precipitation  
Precipitation 0.03 in - - ()
Sea Level Pressure  
Sea Level Pressure 29.92 in    
Wind  
Wind Speed 15 mph (SW)    
Max Wind Speed 33 mph    
Max Gust Speed 43 mph    
Visibility 5 miles    
Events Fog , Snow    
Averages and records for this station are not official NWS values.
T = Trace of Precipitation, MM = Missing Value Source: NWS Daily Summary

Daily Weather History Graph

Daily Weather History Graph

Search for Another Location

Airport:

Trip Planner

Search our weather history database for the weather conditions in past years. The results will help you decide how hot, cold, wet, or windy it might be!

Date:

Astronomy

Jan. 28, 2012 Rise Set
Actual Time 7:49 AM EST 5:46 PM EST
Civil Twilight 7:20 AM EST 6:15 PM EST
Nautical Twilight 6:46 AM EST 6:48 PM EST
Astronomical Twilight 6:14 AM EST 7:21 PM EST
Moon 10:07 AM EST (1/28) 11:37 PM EST (1/28)
Length of Visible Light 10h 55m
Length of Day
9h 56m
Waxing Crescent, 27% of the Moon is Illuminated
Jan 28
Waxing Crescent
Jan 30
First Quarter
Feb 7
Full
Feb 14
Last Quarter
Feb 21
New

Hourly Weather History & Observations

Time (EST) Temp. Windchill Dew Point Humidity Pressure Visibility Wind Dir Wind Speed Gust Speed Precip Events Conditions
12:53 AM 33.1 °F 23.9 °F 28.0 °F 82% 29.96 in 7.0 mi SSW 12.7 mph - N/A   Overcast
1:53 AM 33.1 °F 25.5 °F 28.9 °F 85% 29.94 in 6.0 mi South 9.2 mph - N/A   Overcast
2:25 AM 32.0 °F 25.6 °F 28.4 °F 87% 29.89 in 2.5 mi South 6.9 mph - 0.00 in Snow Light Snow
2:35 AM 32.0 °F 25.6 °F 28.4 °F 87% 29.88 in 3.0 mi SSE 6.9 mph - 0.00 in Snow Light Snow
2:53 AM 32.0 °F 20.8 °F 30.0 °F 92% 29.94 in 4.0 mi SW 17.3 mph - 0.00 in   Overcast
3:06 AM 33.8 °F 24.8 °F 30.2 °F 87% 29.93 in 1.8 mi SW 12.7 mph - 0.00 in Snow Light Snow
3:22 AM 32.0 °F 23.0 °F 30.2 °F 93% 29.92 in 3.0 mi SSW 11.5 mph - 0.00 in   Overcast
3:39 AM 33.8 °F 25.8 °F 30.2 °F 87% 29.91 in 4.0 mi SSW 10.4 mph - 0.00 in   Overcast
3:53 AM 33.1 °F 24.9 °F 30.0 °F 89% 29.92 in 5.0 mi SSW 10.4 mph - 0.00 in   Overcast
4:48 AM 33.8 °F 26.4 °F 30.2 °F 87% 29.87 in 5.0 mi South 9.2 mph - 0.00 in Snow Light Snow
4:53 AM 33.1 °F 25.5 °F 30.0 °F 89% 29.88 in 4.0 mi South 9.2 mph - 0.00 in Snow Light Snow
5:19 AM 33.8 °F 24.3 °F 30.2 °F 87% 29.87 in 1.8 mi South 13.8 mph - 0.00 in Snow Light Snow
5:29 AM 33.8 °F 24.8 °F 30.2 °F 87% 29.87 in 1.5 mi South 12.7 mph - 0.00 in Snow Light Snow
5:43 AM 33.8 °F 24.3 °F 30.2 °F 87% 29.86 in 1.5 mi South 13.8 mph - 0.00 in Snow Light Snow
5:53 AM 32.0 °F 21.6 °F 30.9 °F 96% 29.88 in 0.8 mi SSW 15.0 mph - 0.01 in Snow Light Snow
6:02 AM 32.0 °F 20.8 °F 30.2 °F 93% 29.86 in 0.5 mi SSW 17.3 mph - 0.01 in Fog , Snow Snow
6:09 AM 32.0 °F 21.6 °F 30.2 °F 93% 29.86 in 0.8 mi SSW 15.0 mph - 0.01 in Snow Light Snow
6:12 AM 32.0 °F 21.6 °F 30.2 °F 93% 29.86 in 1.0 mi SSW 15.0 mph - 0.01 in Snow Light Snow
6:26 AM 32.0 °F 22.5 °F 30.2 °F 93% 29.85 in 2.5 mi South 12.7 mph - 0.01 in Snow Light Snow
6:33 AM 33.8 °F 24.8 °F 30.2 °F 87% 29.84 in 4.0 mi South 12.7 mph - 0.01 in   Overcast
6:53 AM 33.1 °F 23.4 °F 30.9 °F 92% 29.86 in 5.0 mi SSW 13.8 mph - 0.01 in   Overcast
7:07 AM 33.8 °F 23.9 °F 30.2 °F 87% 29.84 in 5.0 mi SSW 15.0 mph - N/A   Overcast
7:28 AM 33.8 °F 24.3 °F 30.2 °F 87% 29.83 in 6.0 mi SSW 13.8 mph - N/A   Mostly Cloudy
7:53 AM 33.1 °F 23.0 °F 30.0 °F 89% 29.85 in 6.0 mi SSW 15.0 mph - N/A   Overcast
8:11 AM 33.8 °F 23.9 °F 30.2 °F 87% 29.83 in 1.8 mi SSW 15.0 mph - 0.00 in Snow Light Snow
8:17 AM 33.8 °F 23.9 °F 30.2 °F 87% 29.83 in 0.8 mi SSW 15.0 mph - 0.00 in Snow Light Snow
8:25 AM 33.8 °F 24.3 °F 30.2 °F 87% 29.83 in 0.8 mi SSW 13.8 mph - 0.00 in Snow Light Snow
8:37 AM 33.8 °F 23.5 °F 30.2 °F 87% 29.83 in 0.8 mi SSW 16.1 mph - 0.00 in Snow Light Snow
8:53 AM 33.1 °F 22.6 °F 30.9 °F 92% 29.84 in 0.8 mi SSW 16.1 mph - 0.00 in Snow Light Snow
9:08 AM 33.8 °F 23.9 °F 30.2 °F 87% 29.82 in 1.0 mi SSW 15.0 mph - 0.00 in Snow Light Snow
9:15 AM 33.8 °F 23.5 °F 30.2 °F 87% 29.82 in 0.8 mi SW 16.1 mph - 0.00 in Snow Light Snow
9:23 AM 33.8 °F 23.5 °F 30.2 °F 87% 29.82 in 1.2 mi SSW 16.1 mph - 0.00 in Snow Light Snow
9:50 AM 33.8 °F 22.8 °F 30.2 °F 87% 29.83 in 2.5 mi SW 18.4 mph 26.5 mph 0.00 in Snow Light Snow
9:53 AM 34.0 °F 23.0 °F 30.9 °F 89% 29.85 in 3.0 mi SW 18.4 mph 26.5 mph 0.00 in Snow Light Snow
10:03 AM 33.8 °F 21.3 °F 30.2 °F 87% 29.84 in 4.0 mi WSW 24.2 mph 32.2 mph 0.00 in   Overcast
10:15 AM 33.8 °F 22.2 °F 30.2 °F 87% 29.85 in 7.0 mi WSW 20.7 mph 33.4 mph 0.00 in   Overcast
10:53 AM 34.0 °F 20.5 °F 28.9 °F 82% 29.88 in 10.0 mi WSW 28.8 mph 40.3 mph 0.01 in   Overcast
11:23 AM 33.8 °F 21.3 °F 28.4 °F 81% 29.89 in 10.0 mi West 24.2 mph 33.4 mph N/A   Overcast
11:53 AM 33.1 °F 19.3 °F 27.0 °F 78% 29.91 in 10.0 mi West 28.8 mph 36.8 mph N/A   Overcast
12:42 PM 35.6 °F 23.4 °F 28.4 °F 75% 29.93 in 10.0 mi West 25.3 mph 32.2 mph N/A   Mostly Cloudy
12:53 PM 35.1 °F 21.8 °F 26.1 °F 70% 29.94 in 10.0 mi West 29.9 mph 41.4 mph N/A   Scattered Clouds
1:53 PM 35.1 °F 21.8 °F 24.1 °F 64% 29.97 in 10.0 mi West 29.9 mph 39.1 mph N/A   Clear
2:53 PM 35.1 °F 21.2 °F 19.0 °F 52% 30.00 in 10.0 mi West 33.4 mph 42.6 mph N/A   Clear
3:53 PM 34.0 °F 20.8 °F 18.0 °F 52% 30.05 in 10.0 mi West 27.6 mph 42.6 mph N/A   Clear
5:53 PM 30.9 °F 18.7 °F 19.0 °F 61% 30.11 in 10.0 mi WSW 19.6 mph 26.5 mph N/A   Clear
6:53 PM 30.9 °F 18.7 °F 19.0 °F 61% 30.14 in 10.0 mi WSW 19.6 mph 27.6 mph N/A   Clear
7:53 PM 30.9 °F 17.8 °F 18.0 °F 59% 30.15 in 10.0 mi WSW 23.0 mph 32.2 mph N/A   Clear
8:53 PM 30.0 °F 17.5 °F 18.0 °F 61% 30.15 in 10.0 mi WSW 19.6 mph 31.1 mph N/A   Clear
9:53 PM 30.0 °F 18.7 °F 18.0 °F 61% 30.14 in 10.0 mi WSW 16.1 mph 27.6 mph N/A   Clear
10:53 PM 30.9 °F 19.8 °F 19.9 °F 64% 30.13 in 10.0 mi SW 16.1 mph 26.5 mph N/A   Clear
11:53 PM 30.9 °F 19.8 °F 19.9 °F 64% 30.14 in 10.0 mi WSW 16.1 mph - N/A   Clear